GSAT0104 (PRN E20)

Last updated on Nov. 21, 2019, 4:16 a.m. UTC

1 38858U 12055B   19322.75852990  .00000080  00000-0  00000-0 0  9995
2 38858  54.9476 167.6102 0000179  34.9320 325.1458  1.70473741 44202
UTC
Height (km)
Latitude
Longitude
Inclination
Orbital Period
UTC large
Height (km)
Speed (km/s)
/
Latitude / Longitude
Inclination (degrees)
Orbital Period (minutes)
Azimuth
Elevation
Range (km)
Doppler Factor
iOS Compass Heading
iOS Angle

Next 30 passes for location: Hong Kong

Rise time Rise Azimuth (degrees) Set time Set Azimuth (degrees) Duration Max altitude (degrees)

No matching passes for this satellites